Content
SEND FEEDBACK

Daily
Averages
Monthly
Summary
United States of America

FORT PAYNE, ALABAMA


Home > North America > United States > Alabama
Elevation: 88 feet     Latitude: 34 26N     Longitude: 085 43W

WEATHER
 
SELECT A DAY
Number of Records: 251,745;   Date Range: 2/25/04 - 9/19/14
 
SHARE

PRINT THIS DATA

[ ← Previous Day ]
WEATHER ALMANAC - JANUARY 31, 2013
[ Next Day → ]
[ °C ]   °F
Weather ElementAverageHighLow
Temperature37.1 °F46.4 °F (2:55 pm)32 °F (5:15 am)
Dewpoint23.9 °F30.2 °F (7:15 pm)19.4 °F (3:15 pm)
Humidity60.9 %87 % (9:35 pm)37 % (2:55 pm)
Barometer30.08 in30.15 in (11:15 am)29.93 in (12:35 am)
Wind Speed7.6 mph18.4 mph (12:55 am)
Wind Gust32.2 mph (12:35 am)
Weather ElementAverage
Visibility10 mi
Wind DirectionSSW (205.2 °)

Weather ElementTotal
Precipitation---
Heating Degree Days25.8 (Base 65)
Averaged from 69 records on January 31, 2013
WEATHER CONDITIONS BREAKOUT
WIND DIRECTION BREAKOUT
WEATHER BY HOUR - JANUARY 31, 2013
[ °C ]   °F
Local TimeTemperatureDewpointHumidityBarometerVisibilityWind DirectionWind SpeedGust SpeedPrecipitationEventsConditions
12:35 AM37.4 °F23.0 °F56 %29.93 in10.0 miWest (280°)16.1 mph32.2 mphOvercast
12:55 AM35.6 °F21.2 °F56 %29.94 in10.0 miWNW (290°)18.4 mph26.5 mphOvercast
1:15 AM35.6 °F21.2 °F56 %29.95 in10.0 miWNW (290°)12.7 mph24.2 mphOvercast
1:35 AM35.6 °F23.0 °F60 %29.96 in10.0 miWNW (290°)10.4 mph17.3 mphOvercast
1:55 AM35.6 °F23.0 °F60 %29.96 in10.0 miNW (310°)10.4 mphOvercast
2:15 AM35.6 °F23.0 °F60 %29.97 in10.0 miWest (280°)6.9 mphOvercast
2:35 AM35.6 °F23.0 °F60 %29.97 in10.0 miWNW (290°)6.9 mph18.4 mphOvercast
2:55 AM35.6 °F23.0 °F60 %29.97 in10.0 miWest (280°)9.2 mphOvercast
3:15 AM35.6 °F23.0 °F60 %29.97 in10.0 miWNW (290°)10.4 mph18.4 mphOvercast
3:35 AM35.6 °F21.2 °F56 %29.98 in10.0 miWest (280°)10.4 mph18.4 mphOvercast
3:55 AM35.6 °F23.0 °F60 %29.98 in10.0 miWest (280°)6.9 mphOvercast
4:15 AM33.8 °F23.0 °F65 %29.99 in10.0 miWest (270°)11.5 mph17.3 mphOvercast
4:35 AM33.8 °F21.2 °F60 %30.00 in10.0 miWest (260°)10.4 mph16.1 mphScattered Clouds
4:55 AM33.8 °F21.2 °F60 %30.01 in10.0 miWest (260°)9.2 mphClear
5:15 AM32.0 °F21.2 °F64 %30.02 in10.0 miWest (260°)5.8 mphScattered Clouds
5:35 AM32.0 °F23.0 °F69 %30.02 in10.0 miWest (260°)4.6 mphScattered Clouds
5:55 AM32.0 °F23.0 °F69 %30.03 in10.0 miWSW (250°)5.8 mphMostly Cloudy
6:15 AM32.0 °F23.0 °F69 %30.04 in10.0 miWSW (250°)4.6 mphMostly Cloudy
6:35 AM32.0 °F24.8 °F75 %30.04 in10.0 miWest (260°)6.9 mphMostly Cloudy
6:55 AM32.0 °F23.0 °F69 %30.05 in10.0 miWest (260°)8.1 mphScattered Clouds
7:15 AM32.0 °F24.8 °F75 %30.06 in10.0 miWSW (250°)10.4 mphClear
7:35 AM32.0 °F23.0 °F69 %30.08 in10.0 miWSW (240°)11.5 mphScattered Clouds
7:55 AM32.0 °F24.8 °F75 %30.08 in10.0 miWest (270°)9.2 mphMostly Cloudy
8:15 AM32.0 °F23.0 °F69 %30.09 in10.0 miWest (280°)11.5 mph21.9 mphScattered Clouds
8:35 AM33.8 °F23.0 °F65 %30.09 in10.0 miWNW (290°)12.7 mph20.7 mphScattered Clouds
8:55 AM33.8 °F23.0 °F65 %30.09 in10.0 miWNW (290°)15.0 mph24.2 mphClear
9:15 AM35.6 °F24.8 °F65 %30.10 in10.0 miWNW (290°)12.7 mph17.3 mphScattered Clouds
9:35 AM35.6 °F23.0 °F60 %30.11 in10.0 miWest (280°)13.8 mph23.0 mphScattered Clouds
9:55 AM35.6 °F26.6 °F70 %30.13 in10.0 miWest (260°)9.2 mph18.4 mphScattered Clouds
10:15 AM35.6 °F24.8 °F65 %30.13 in10.0 miWNW (290°)11.5 mph17.3 mphScattered Clouds
10:35 AM37.4 °F26.6 °F65 %30.13 in10.0 miWNW (300°)6.9 mphClear
10:55 AM39.2 °F24.8 °F56 %30.14 in10.0 miWest (280°)10.4 mph17.3 mphClear
11:15 AM41.0 °F24.8 °F53 %30.15 in10.0 miWest (280°)12.7 mph20.7 mphClear
11:35 AM41.0 °F24.8 °F53 %30.14 in10.0 miWest (280°)10.4 mphClear
11:55 AM41.0 °F23.0 °F49 %30.14 in10.0 miWest (270°)11.5 mphClear
12:15 PM41.0 °F21.2 °F45 %30.13 in10.0 miNNW (330°)10.4 mph19.6 mphClear
12:35 PM42.8 °F23.0 °F46 %30.12 in10.0 miNW (310°)10.4 mph17.3 mphClear
12:55 PM42.8 °F23.0 °F46 %30.11 in10.0 miWest (270°)8.1 mphClear
1:15 PM44.6 °F23.0 °F43 %30.11 in10.0 miWSW (250°)6.9 mph16.1 mphClear
1:35 PM44.6 °F21.2 °F39 %30.10 in10.0 miWest (270°)11.5 mph18.4 mphClear
1:55 PM44.6 °F21.2 °F39 %30.11 in10.0 miWest (260°)16.1 mph21.9 mphClear
2:15 PM44.6 °F21.2 °F39 %30.11 in10.0 miWest (260°)11.5 mph17.3 mphClear
2:35 PM44.6 °F21.2 °F39 %30.10 in10.0 miWSW (250°)11.5 mphClear
2:55 PM46.4 °F21.2 °F37 %30.11 in10.0 miWNW (290°)11.5 mph16.1 mphClear
3:15 PM44.6 °F19.4 °F37 %30.10 in10.0 miWNW (290°)9.2 mph20.7 mphClear
3:35 PM46.4 °F21.2 °F37 %30.10 in10.0 miWSW (250°)13.8 mph19.6 mphClear
3:55 PM44.6 °F19.4 °F37 %30.10 in10.0 miWNW (290°)10.4 mphClear
4:15 PM44.6 °F21.2 °F39 %30.09 in10.0 miWSW (250°)10.4 mphClear
4:35 PM44.6 °F23.0 °F43 %30.08 in10.0 miWSW (250°)8.1 mphClear
4:55 PM44.6 °F21.2 °F39 %30.08 in10.0 miWSW (240°)10.4 mphClear
5:15 PM42.8 °F23.0 °F46 %30.09 in10.0 miSW (230°)5.8 mphClear
5:35 PM42.8 °F23.0 °F46 %30.08 in10.0 miCalmClear
5:55 PM42.8 °F23.0 °F46 %30.09 in10.0 miCalmClear
6:15 PM39.2 °F26.6 °F61 %30.10 in10.0 miCalmClear
6:35 PM37.4 °F26.6 °F65 %30.11 in10.0 miCalmClear
7:15 PM35.6 °F30.2 °F81 %30.12 in10.0 miSW (230°)4.6 mphClear
7:35 PM35.6 °F28.4 °F75 %30.12 in10.0 miCalmClear
7:55 PM33.8 °F28.4 °F81 %30.13 in10.0 miCalmClear
8:15 PM35.6 °F26.6 °F70 %30.12 in10.0 miCalmClear
8:35 PM33.8 °F28.4 °F81 %30.11 in10.0 miCalmClear
9:15 PM33.8 °F28.4 °F81 %30.12 in10.0 miCalmClear
9:35 PM32.0 °F28.4 °F87 %30.13 in10.0 miCalmClear
9:55 PM32.0 °F28.4 °F87 %30.13 in10.0 miCalmClear
10:15 PM32.0 °F28.4 °F87 %30.13 in10.0 miCalmClear
10:35 PM32.0 °F26.6 °F80 %30.13 in10.0 miCalmClear
10:55 PM32.0 °F26.6 °F80 %30.13 in10.0 miCalmClear
11:15 PM32.0 °F26.6 °F80 %30.13 in10.0 miCalmClear
11:35 PM32.0 °F28.4 °F87 %30.12 in10.0 miCalmClear
11:55 PM32.0 °F26.6 °F80 %30.12 in10.0 miCalmClear
Hourly data recorded from K4A9, located miles away from Fort Payne, Alabama







STORIES FROM OUR PARTNERS